Temperature
12 11 11 11 10 10 10 10 10 10 9 9 9 9 8 8 7 7 6 6 5 5 4 4 4 3 2 2 1 1 0 -0 -1 -1 -1 -1 -2 -2 -2 -3 -3 -3 -3
11 11 11 10 10 10 10 10 10 9 9 9 9 8 8 7 7 6 6 5 5 4 4 3 3 2 2 2 1 0 0 -1 -1 -2 -2 -2 -3 -3 -3 -3 -4 -4 -4
11 11 10 10 10 10 10 9 9 9 9 9 8 8 7 7 6 6 5 5 4 4 3 3 2 2 2 1 0 -0 -1 -1 -2 -3 -3 -3 -3 -3 -4 -4 -4 -4 -4
11 11 10 10 10 10 9 9 9 9 8 8 8 7 7 6 6 5 5 4 4 3 3 2 2 1 1 0 -0 -1 -1 -2 -2 -3 -3 -3 -4 -4 -4 -5 -5 -5 -5
11 11 11 10 10 9 9 9 8 8 8 8 7 7 6 6 5 5 4 4 3 3 2 2 1 1 0 -0 -1 -1 -2 -2 -3 -3 -4 -4 -4 -5 -5 -5 -5 -5 -5
11 10 10 10 9 9 9 8 8 8 7 7 7 6 6 5 5 4 4 3 2 2 2 1 1 0 -0 -1 -2 -2 -3 -3 -4 -4 -4 -5 -5 -5 -5 -5 -6 -6 -6
10 10 9 9 9 8 8 8 7 7 7 7 6 6 5 5 4 4 3 2 2 1 1 0 -0 -1 -1 -2 -2 -3 -3 -4 -4 -4 -5 -5 -5 -5 -5 -6 -6 -6 -6
10 9 9 8 8 8 7 7 7 7 6 6 6 5 5 4 4 3 2 2 1 1 0 -0 -1 -1 -2 -2 -3 -3 -4 -4 -4 -5 -5 -5 -5 -5 -6 -6 -6 -6 -6
9 9 8 8 7 7 7 6 6 6 6 5 5 4 4 3 3 2 1 1 0 0 -0 -1 -2 -2 -3 -3 -4 -4 -4 -4 -5 -5 -6 -6 -6 -6 -6 -6 -6 -6 -7
9 8 8 7 7 6 6 6 5 5 5 5 4 4 3 3 2 1 1 0 -0 -1 -1 -2 -2 -3 -3 -4 -4 -5 -5 -5 -5 -6 -6 -6 -6 -6 -6 -7 -7 -7 -7
8 8 7 7 6 6 5 5 5 4 4 4 3 3 2 2 1 1 -0 -1 -1 -2 -2 -2 -3 -4 -4 -5 -5 -5 -5 -6 -6 -6 -6 -6 -6 -6 -7 -7 -7 -7 -8
8 7 6 6 5 5 4 4 4 4 3 3 2 2 2 1 0 -0 -1 -1 -2 -3 -3 -3 -4 -5 -5 -5 -6 -6 -6 -6 -6 -6 -7 -7 -7 -7 -7 -7 -7 -8 -8
7 6 6 5 5 4 4 4 3 3 3 2 2 1 1 0 -1 -1 -2 -3 -3 -4 -4 -5 -5 -5 -6 -6 -6 -6 -7 -7 -7 -7 -7 -7 -8 -8 -8 -8 -8 -8 -8
6 5 5 4 4 4 3 3 3 2 2 1 1 0 -0 -1 -1 -2 -3 -3 -4 -5 -5 -5 -6 -6 -7 -7 -7 -7 -7 -7 -8 -8 -8 -8 -8 -8 -9 -9 -9 -9 -9
5 5 4 4 3 3 3 2 2 1 1 0 -0 -1 -2 -2 -2 -3 -4 -4 -5 -5 -6 -6 -7 -7 -7 -7 -7 -8 -8 -8 -8 -8 -9 -9 -9 -9 -9 -9 -9 -9 -9
5 4 4 3 3 2 2 2 1 0 -0 -1 -1 -2 -2 -3 -4 -4 -5 -5 -6 -6 -7 -7 -7 -8 -8 -8 -8 -8 -8 -9 -9 -9 -9 -10 -10 -10 -10 -9 -9 -9 -9
4 3 3 3 2 2 1 1 0 -0 -1 -1 -2 -3 -3 -4 -5 -5 -6 -6 -7 -7 -7 -8 -8 -8 -8 -9 -9 -9 -9 -9 -9 -10 -10 -10 -10 -10 -10 -10 -10 -10 -10
3 3 2 2 1 1 0 -0 -1 -2 -2 -2 -3 -4 -4 -5 -6 -6 -7 -7 -7 -8 -8 -8 -9 -9 -9 -9 -9 -9 -10 -10 -10 -10 -10 -10 -10 -10 -10 -10 -10 -10 -10
2 2 1 1 0 -0 -1 -1 -2 -3 -3 -4 -4 -5 -6 -7 -7 -7 -8 -8 -8 -9 -9 -9 -9 -10 -10 -10 -10 -10 -10 -10 -10 -11 -11 -11 -11 -11 -11 -11 -11 -10 -10
2 1 1 0 -0 -1 -2 -2 -3 -4 -5 -5 -6 -6 -7 -8 -8 -8 -9 -9 -9 -10 -10 -10 -10 -10 -10 -10 -10 -11 -11 -11 -11 -11 -11 -11 -11 -11 -11 -11 -11 -11 -10
1 0 -0 -1 -1 -2 -3 -4 -4 -5 -6 -7 -7 -7 -8 -8 -9 -9 -9 -10 -10 -10 -10 -11 -11 -11 -11 -11 -11 -11 -11 -11 -11 -11 -11 -11 -12 -11 -11 -11 -11 -11 -11
0 -1 -1 -2 -2 -3 -4 -5 -6 -6 -7 -7 -8 -8 -9 -9 -9 -10 -10 -10 -11 -11 -11 -11 -11 -11 -11 -11 -11 -11 -11 -11 -12 -12 -12 -12 -12 -12 -12 -11 -11 -11 -11
-1 -1 -2 -3 -4 -5 -5 -6 -7 -7 -8 -8 -9 -9 -9 -10 -10 -10 -11 -11 -11 -11 -11 -11 -12 -12 -12 -12 -12 -12 -12 -12 -12 -12 -12 -12 -12 -12 -12 -12 -12 -11 -11
-2 -3 -3 -4 -5 -6 -6 -7 -8 -8 -9 -9 -10 -10 -10 -10 -11 -11 -11 -11 -11 -11 -11 -12 -12 -12 -12 -12 -12 -12 -12 -12 -12 -12 -12 -12 -12 -12 -12 -12 -12 -11 -11
-3 -4 -5 -5 -6 -7 -7 -8 -9 -9 -10 -10 -10 -10 -11 -11 -11 -11 -11 -11 -11 -12 -12 -12 -12 -12 -12 -12 -12 -12 -12 -12 -12 -12 -12 -12 -12 -12 -12 -12 -12 -11 -11
-4 -5 -6 -6 -7 -8 -8 -9 -9 -10 -10 -11 -11 -11 -11 -11 -11 -11 -11 -12 -12 -12 -12 -12 -12 -12 -12 -12 -12 -12 -12 -12 -12 -12 -12 -12 -12 -12 -12 -12 -12 -11 -11
Wind_Speed
10 9 8 8 9 9 8 9 9 8 9 9 9 8 7 7 6 5 5 5 5 5 5 6 7 6 5 5 5 5 6 7 12 10 6 6 7 8 11 15 17 17 19
9 8 8 8 9 9 8 9 9 9 9 9 8 8 7 7 6 6 6 6 6 6 6 6 7 6 7 6 6 7 7 7 9 13 8 6 8 8 8 8 12 17 17
9 9 9 9 9 9 9 9 9 9 8 8 8 7 7 7 6 6 6 5 5 6 6 6 7 7 8 7 7 7 7 8 7 10 11 7 6 7 8 9 10 9 16
9 9 9 9 9 9 8 8 9 9 8 8 7 7 7 6 6 5 5 5 5 5 6 7 7 8 9 9 8 8 7 7 7 8 10 9 7 7 7 8 9 7 9
9 9 8 8 8 8 8 8 8 8 8 7 7 6 6 5 6 6 5 6 6 7 7 8 9 12 15 13 10 8 7 7 7 8 10 10 9 7 7 7 10 9 8
8 8 7 7 8 8 8 8 8 7 7 7 7 7 6 6 9 11 8 6 6 7 8 9 10 12 15 20 21 19 15 10 8 9 10 11 12 9 8 9 9 10 9
8 7 7 8 8 7 8 7 7 7 6 6 6 6 7 7 10 11 12 7 6 7 8 8 9 9 13 9 14 18 16 20 19 13 12 12 12 11 10 11 10 11 11
7 7 7 7 7 7 7 7 6 5 6 6 6 6 6 7 10 12 12 7 7 8 9 9 9 9 9 10 8 8 9 10 13 11 10 12 12 11 11 12 12 10 9
7 7 7 7 7 7 7 6 5 5 5 5 5 6 6 7 10 11 11 5 6 8 9 9 10 9 16 19 12 9 9 9 15 20 22 21 24 24 19 9 7 8 10
6 6 7 7 7 7 6 5 4 4 4 4 4 5 6 6 9 10 11 5 7 7 7 8 13 15 18 19 11 9 10 10 10 12 14 16 14 16 20 10 6 8 8
6 6 6 6 6 5 5 4 4 3 3 3 4 4 5 7 8 11 12 6 6 7 6 6 7 17 20 21 18 10 15 15 9 8 8 8 7 7 7 6 6 6 8
7 6 6 5 4 4 4 3 3 3 3 3 4 4 4 5 7 10 13 13 11 8 7 6 8 18 20 21 17 18 23 19 7 6 7 7 6 6 6 5 6 7 8
7 6 5 5 4 3 3 3 2 2 2 3 3 4 5 4 6 12 14 15 15 10 8 14 18 21 20 15 18 23 19 8 5 6 7 7 6 6 5 5 6 6 7
7 5 4 4 3 2 2 2 2 2 3 3 4 5 5 5 5 5 5 7 11 10 9 13 19 20 16 16 16 12 7 6 6 6 6 6 5 5 5 5 5 5 5
6 5 4 3 3 2 1 2 3 4 4 4 5 5 5 6 8 12 10 6 6 8 10 7 6 7 6 6 7 7 5 5 5 4 5 5 5 5 5 4 4 4 5
5 4 3 2 1 1 1 2 3 5 8 9 10 9 8 12 17 17 18 19 20 20 14 7 8 7 8 7 6 5 4 4 4 4 5 5 5 6 6 5 5 5 6
5 3 2 2 1 1 1 2 4 5 8 10 12 14 14 16 18 18 19 19 19 18 10 7 8 7 7 6 5 5 5 4 4 4 5 5 6 5 5 6 5 5 5
4 3 2 1 1 1 2 3 3 4 5 5 7 13 15 16 17 17 18 16 9 8 6 7 7 7 6 6 5 5 5 4 4 4 4 5 5 5 5 6 5 5 6
3 2 1 1 0 1 2 3 4 5 5 6 5 7 13 14 15 16 15 7 7 7 6 7 7 6 6 5 5 5 5 5 5 4 4 5 5 5 6 6 5 9 7
2 1 0 0 1 2 3 3 4 5 5 6 6 6 6 7 6 7 6 5 6 7 7 7 6 6 6 5 5 5 5 5 5 4 4 5 5 5 6 6 6 5 5
2 0 2 2 2 3 3 4 5 5 6 7 6 9 14 8 6 6 6 6 6 7 7 6 6 6 6 5 5 6 6 5 5 4 4 5 5 5 5 5 5 5 5
1 0 1 2 3 3 4 4 5 6 7 8 7 8 15 8 6 7 7 7 6 6 6 6 6 6 6 6 6 5 5 6 5 4 5 5 5 5 5 5 5 5 5
0 2 3 3 3 7 6 5 5 6 6 7 7 7 7 7 7 7 7 7 6 6 6 6 6 6 6 6 5 6 6 6 5 5 5 5 5 5 5 6 6 7 6
1 2 3 4 4 4 5 5 5 6 6 7 7 7 7 7 7 8 8 7 7 6 6 6 7 8 9 8 7 7 7 8 7 6 7 7 7 6 6 6 7 7 7
2 3 3 4 4 4 5 5 6 7 7 8 8 8 8 8 8 8 7 7 8 8 8 8 7 8 10 10 9 9 13 17 16 11 7 7 8 8 8 8 8 8 8
2 3 3 3 4 4 5 6 7 7 7 8 8 8 8 8 9 9 8 8 8 8 8 7 8 10 10 10 12 15 18 18 18 18 11 7 8 8 8 8 9 9 8
Wind_Direction
176 173 167 164 159 156 157 159 155 151 155 163 169 169 173 179 184 190 202 208 216 229 231 232 242 242 244 245 243 243 245 247 271 279 267 277 286 291 298 299 301 300 298
170 165 163 159 156 157 161 160 155 156 162 166 168 172 179 185 188 196 209 213 219 232 239 242 250 253 252 250 249 250 252 251 264 282 285 281 281 284 285 288 298 299 296
165 164 163 162 162 165 165 161 159 161 164 165 168 178 185 188 195 206 212 219 227 235 242 248 254 256 261 261 259 259 260 267 266 279 287 284 282 283 288 289 286 288 293
165 166 168 169 169 169 165 162 163 162 165 170 177 182 185 189 199 210 218 228 241 249 251 251 254 254 258 262 265 262 264 269 273 278 285 288 285 281 282 287 291 281 284
164 168 171 166 163 163 161 161 161 163 170 172 175 182 186 190 204 209 217 228 238 252 257 255 256 258 261 266 268 262 259 266 273 278 283 288 287 286 281 281 289 289 279
161 165 162 160 161 161 160 159 161 166 170 173 181 188 198 207 217 222 221 223 233 244 256 259 260 263 268 274 276 278 275 272 273 274 281 282 283 280 281 283 287 292 291
155 157 159 159 159 159 158 160 168 173 175 183 190 196 208 219 225 233 237 235 239 249 257 263 270 270 276 266 274 279 280 280 281 281 281 281 283 281 280 281 278 281 285
151 155 154 152 153 155 160 171 176 176 182 190 199 206 214 228 234 241 246 240 244 253 258 263 267 269 268 274 263 262 258 265 273 277 271 273 276 275 269 275 280 282 279
152 153 151 151 155 161 171 177 179 179 190 196 201 209 220 236 240 245 248 236 246 255 259 263 268 268 278 284 281 272 271 268 281 284 285 287 290 293 294 291 287 291 293
146 144 144 149 156 166 173 176 178 180 189 192 208 218 227 240 250 251 251 238 251 260 262 264 275 282 287 289 283 274 278 277 276 281 284 287 288 289 293 287 276 281 287
131 131 136 143 152 159 164 167 165 167 175 203 226 238 240 247 259 260 259 249 246 259 264 265 270 288 291 292 291 282 282 288 283 281 283 280 279 276 274 270 258 259 274
125 129 134 138 142 146 149 156 159 166 196 226 242 255 254 257 262 268 271 271 274 268 269 267 273 289 291 292 293 290 292 296 291 290 288 284 284 283 279 273 266 258 256
125 127 128 127 128 137 145 152 163 184 211 237 247 260 268 265 271 278 282 285 288 285 278 285 291 294 296 295 292 293 294 290 280 280 281 281 277 276 285 284 279 273 271
126 126 125 126 132 133 134 157 182 209 228 244 255 263 270 273 273 276 275 284 288 290 291 290 293 294 293 291 291 293 283 269 274 271 277 279 283 284 284 281 283 287 287
121 121 120 123 135 141 165 199 211 220 225 242 247 250 267 276 276 287 292 286 283 280 293 286 281 283 277 275 276 275 269 273 284 277 284 289 288 290 287 282 278 284 282
121 121 121 125 124 140 226 297 280 271 274 271 272 274 277 282 294 298 300 300 301 300 300 289 286 283 284 284 283 281 273 269 270 276 283 285 284 286 288 288 282 280 281
124 127 124 126 143 195 248 262 286 294 282 283 286 290 291 296 299 301 301 302 301 304 298 288 285 285 284 281 279 276 272 269 269 270 274 279 283 282 284 286 285 285 283
112 122 133 152 183 234 255 263 270 282 293 291 292 296 299 300 302 304 306 309 303 299 283 286 287 287 285 281 278 275 273 272 268 269 270 274 277 282 285 285 283 282 284
112 123 124 137 232 262 269 273 276 281 285 290 293 298 301 305 307 307 311 303 294 292 287 286 286 287 284 279 277 272 267 266 268 267 268 270 271 274 278 279 280 290 291
110 129 115 233 267 277 278 279 281 282 286 289 292 295 304 304 297 296 291 282 285 288 287 286 286 285 282 276 274 273 268 267 266 259 264 268 269 268 272 273 275 279 279
113 143 305 299 269 268 271 274 277 283 286 288 288 295 303 301 292 289 287 284 282 284 284 284 283 283 280 278 272 265 263 264 258 255 261 268 271 272 272 269 271 274 276
105 234 261 264 270 273 281 277 280 281 284 287 290 296 303 300 289 286 284 283 278 276 276 277 277 275 273 273 273 271 267 266 262 256 260 264 266 271 272 270 272 274 273
262 276 278 277 276 291 296 284 282 284 286 288 292 294 294 288 287 287 286 285 282 279 276 273 276 277 272 268 264 260 261 264 260 253 259 264 263 266 267 268 270 273 270
280 279 282 285 285 284 286 288 289 291 293 293 293 293 292 288 287 288 287 285 284 281 276 273 274 275 275 274 269 260 256 261 260 251 249 253 256 261 264 262 263 265 265
287 287 289 291 293 295 296 297 296 295 295 298 298 298 296 294 292 292 290 288 288 286 284 281 279 278 276 273 270 265 273 278 277 265 244 244 248 250 256 257 256 259 257
296 298 301 302 301 300 299 297 295 296 296 298 297 294 293 293 293 292 291 288 288 288 287 284 280 278 278 277 273 275 280 281 278 276 265 248 244 247 249 253 252 253 252
Height
1474 1477 1480 1484 1487 1490 1493 1496 1498 1500 1502 1504 1506 1507 1508 1509 1510 1510 1509 1509 1508 1507 1506 1505 1503 1502 1500 1498 1496 1493 1491 1487 1480 1474 1474 1472 1470 1467 1464 1462 1458 1455 1451
1471 1474 1477 1480 1483 1486 1489 1491 1494 1496 1498 1500 1502 1503 1504 1505 1505 1505 1504 1504 1503 1502 1501 1499 1498 1496 1494 1492 1489 1487 1484 1481 1476 1469 1466 1465 1463 1461 1457 1454 1451 1448 1444
1467 1470 1473 1476 1479 1482 1484 1487 1490 1492 1494 1496 1497 1498 1499 1500 1500 1500 1499 1499 1498 1497 1495 1494 1492 1490 1487 1485 1483 1480 1477 1474 1471 1465 1459 1458 1455 1453 1450 1446 1443 1440 1437
1464 1467 1469 1472 1475 1478 1480 1483 1485 1488 1490 1491 1493 1494 1495 1495 1495 1495 1494 1493 1492 1491 1489 1488 1486 1483 1481 1478 1476 1473 1470 1467 1464 1459 1454 1450 1448 1446 1443 1439 1435 1432 1429
1460 1463 1465 1468 1471 1474 1476 1479 1481 1483 1485 1487 1488 1489 1490 1490 1490 1490 1489 1487 1486 1484 1483 1481 1479 1476 1474 1471 1469 1466 1463 1460 1456 1453 1448 1444 1440 1438 1436 1433 1428 1424 1421
1457 1459 1462 1465 1467 1470 1472 1474 1477 1479 1481 1482 1483 1484 1485 1485 1485 1484 1483 1481 1479 1477 1475 1473 1471 1469 1466 1464 1462 1459 1457 1454 1450 1446 1442 1438 1434 1432 1429 1426 1422 1418 1412
1454 1456 1459 1461 1463 1466 1468 1470 1472 1474 1476 1477 1478 1479 1479 1480 1479 1478 1477 1475 1472 1470 1468 1466 1463 1461 1459 1456 1453 1451 1449 1447 1445 1441 1436 1431 1428 1425 1423 1419 1416 1412 1407
1451 1453 1455 1457 1460 1462 1464 1466 1468 1470 1471 1473 1473 1474 1474 1474 1473 1472 1470 1468 1465 1463 1461 1459 1456 1453 1451 1449 1445 1442 1440 1438 1436 1433 1429 1425 1422 1419 1416 1413 1409 1404 1400
1448 1450 1452 1454 1456 1458 1460 1462 1464 1465 1467 1468 1469 1469 1469 1468 1467 1466 1464 1461 1458 1456 1454 1451 1449 1446 1444 1442 1438 1434 1431 1429 1427 1425 1422 1418 1415 1413 1411 1407 1402 1399 1393
1445 1447 1449 1451 1453 1455 1457 1459 1460 1462 1463 1463 1464 1464 1463 1462 1461 1460 1458 1454 1451 1448 1446 1444 1442 1439 1437 1434 1431 1427 1423 1420 1418 1415 1413 1410 1407 1405 1403 1400 1397 1393 1389
1443 1445 1447 1448 1450 1452 1454 1455 1457 1458 1458 1459 1459 1458 1457 1456 1455 1453 1451 1448 1444 1441 1438 1435 1434 1432 1429 1427 1424 1421 1417 1414 1410 1407 1404 1401 1399 1397 1395 1393 1391 1388 1385
1441 1443 1444 1446 1447 1449 1451 1452 1453 1454 1454 1454 1453 1452 1451 1450 1448 1446 1444 1442 1438 1434 1431 1428 1425 1423 1421 1418 1416 1413 1410 1407 1404 1400 1397 1395 1392 1390 1388 1386 1384 1382 1380
1439 1440 1442 1443 1445 1446 1448 1449 1449 1450 1449 1448 1447 1445 1444 1443 1441 1439 1437 1434 1431 1428 1424 1421 1418 1416 1413 1410 1407 1405 1403 1400 1397 1394 1391 1389 1386 1384 1382 1380 1378 1376 1374
1437 1438 1440 1441 1443 1444 1445 1446 1446 1445 1445 1443 1441 1439 1437 1435 1434 1431 1428 1426 1423 1420 1416 1413 1410 1407 1405 1402 1399 1397 1395 1393 1390 1388 1385 1383 1381 1378 1376 1375 1373 1371 1368
1435 1436 1438 1439 1440 1441 1441 1442 1441 1441 1440 1438 1436 1434 1431 1428 1426 1425 1422 1418 1415 1412 1408 1404 1402 1399 1396 1394 1392 1390 1388 1386 1384 1382 1380 1377 1375 1373 1371 1370 1369 1367 1364
1433 1434 1435 1436 1437 1437 1437 1437 1436 1436 1434 1433 1430 1428 1425 1423 1420 1417 1414 1411 1408 1405 1402 1397 1395 1392 1390 1388 1386 1383 1382 1380 1378 1376 1374 1372 1370 1369 1367 1366 1364 1363 1361
1431 1432 1433 1433 1433 1433 1432 1431 1429 1429 1428 1426 1424 1422 1419 1416 1413 1410 1407 1404 1401 1398 1395 1391 1389 1386 1384 1382 1380 1378 1376 1374 1373 1371 1369 1367 1366 1364 1363 1361 1360 1359 1357
1428 1429 1430 1430 1429 1428 1427 1426 1424 1421 1419 1417 1416 1414 1411 1408 1406 1403 1400 1396 1393 1391 1388 1385 1383 1380 1378 1376 1374 1372 1370 1369 1367 1366 1364 1363 1361 1360 1359 1358 1356 1355 1353
1425 1426 1426 1425 1425 1424 1422 1420 1418 1416 1413 1410 1408 1406 1404 1401 1398 1396 1393 1390 1386 1384 1382 1379 1377 1375 1372 1370 1368 1366 1365 1363 1362 1361 1359 1358 1357 1356 1355 1354 1352 1351 1350
1422 1422 1422 1421 1420 1418 1416 1414 1412 1409 1407 1404 1401 1399 1396 1394 1390 1388 1386 1384 1381 1378 1375 1373 1371 1369 1366 1364 1363 1361 1359 1358 1357 1356 1354 1353 1352 1351 1350 1349 1349 1348 1347
1418 1418 1417 1416 1414 1413 1411 1408 1406 1403 1401 1398 1396 1393 1391 1388 1384 1382 1379 1377 1375 1372 1369 1367 1365 1362 1360 1359 1357 1355 1354 1353 1352 1351 1350 1349 1348 1347 1346 1346 1345 1344 1343
1414 1413 1412 1411 1409 1407 1405 1403 1400 1397 1395 1392 1389 1387 1385 1382 1378 1376 1373 1370 1368 1366 1363 1361 1358 1356 1354 1353 1351 1350 1348 1347 1346 1346 1345 1344 1343 1342 1342 1341 1341 1340 1340
1409 1408 1407 1405 1403 1401 1399 1397 1394 1392 1389 1386 1383 1380 1377 1375 1372 1369 1367 1364 1362 1359 1357 1355 1352 1350 1348 1347 1345 1344 1343 1342 1341 1340 1339 1339 1338 1338 1337 1337 1336 1336 1336
1405 1403 1401 1400 1398 1395 1393 1391 1388 1385 1383 1380 1377 1374 1371 1368 1366 1363 1360 1358 1355 1352 1350 1348 1346 1343 1342 1340 1339 1338 1337 1336 1335 1334 1334 1333 1333 1333 1332 1332 1332 1332 1332
1400 1398 1396 1394 1392 1390 1387 1385 1382 1379 1376 1374 1371 1368 1365 1362 1359 1356 1354 1351 1349 1346 1343 1341 1339 1337 1335 1334 1332 1331 1330 1330 1329 1329 1328 1328 1327 1327 1327 1327 1327 1327 1327
1395 1393 1391 1389 1386 1384 1381 1378 1376 1373 1370 1367 1365 1362 1359 1356 1353 1350 1347 1344 1342 1339 1337 1335 1333 1331 1329 1327 1326 1325 1324 1323 1323 1323 1323 1322 1322 1321 1322 1322 1322 1322 1322